Crescent City, CA

4:50 AM PDT on April 24, 2018 (GMT -0700)
McNamara

Weather History for KCEC - July, 2013

Change the Weather History Date:

Friday, July 12, 2013

  Actual Average Record
Temperature  
Mean Temperature 55 °F 56 °F  
Max Temperature 61 °F 61 °F 79 °F (1990)
Min Temperature 48 °F 51 °F 41 °F (1960)
Degree Days  
Heating Degree Days 11 9  
Month to date heating degree days 108  
Since 1 June heating degree days 417  
Since 1 July heating degree days 108  
Cooling Degree Days 0 0  
Month to date cooling degree days 0  
Year to date cooling degree days 0  
Since 1 June cooling degree days 0  
Growing Degree Days 4 (Base 50)    
Moisture  
Dew Point 50 °F    
Average Humidity 85    
Maximum Humidity 100    
Minimum Humidity 69    
Precipitation  
Precipitation 0.00 in 0.01 in 0.29 in (1968)
Month to date precipitation 0.00 0.26  
Year to date precipitation 19.93 37.19  
Since 1 July precipitation 0.00  
Snow  
Snow 0.00 in - - ()
Month to date snowfall 0.0  
Since 1 June snowfall 0.0  
Since 1 July snowfall 0.0  
Snow Depth -    
Sea Level Pressure  
Sea Level Pressure 30.00 in    
Wind  
Wind Speed 5 mph (SSW)    
Max Wind Speed 20 mph    
Max Gust Speed 26 mph    
Visibility 8 miles    
Events      
T = Trace of Precipitation, MM = Missing Value Source: NWS Daily Summary

Daily Weather History Graph

Daily Weather History Graph

Search for Another Location

Airport or City:

Astronomy

Jul. 12, 2013 Rise Set
Actual Time 5:53 AM PDT 8:51 PM PDT
Civil Twilight 5:19 AM PDT 9:24 PM PDT
Nautical Twilight 4:37 AM PDT 10:07 PM PDT
Astronomical Twilight 3:47 AM PDT 10:56 PM PDT
Moon 10:20 AM PDT (7/12) 10:59 PM PDT (7/12)
Length of Visible Light 16h 05m
Length of Day
14h 58m
Waxing Crescent, 18% of the Moon is Illuminated
Jul 12
Waxing Crescent
Jul 15
First Quarter
Jul 22
Full
Jul 29
Last Quarter
Aug 6
New

Hourly Weather History & Observations

Time (PDT) Temp. Dew Point Humidity Pressure Visibility Wind Dir Wind Speed Gust Speed Precip Events Conditions
12:56 AM 52.0 °F 48.9 °F 89% 29.97 in 10.0 mi SE 10.4 mph - N/A   Clear
1:56 AM 50.0 °F 48.0 °F 93% 29.97 in 9.0 mi NNE 3.5 mph - N/A   Clear
2:56 AM 50.0 °F 48.9 °F 96% 29.98 in 8.0 mi East 4.6 mph - N/A   Clear
3:56 AM 48.9 °F 48.0 °F 97% 29.98 in 7.0 mi East 3.5 mph - N/A   Partly Cloudy
4:22 AM 48.2 °F 48.2 °F 100% 29.98 in 7.0 mi Calm Calm - N/A   Mostly Cloudy
4:56 AM 50.0 °F 50.0 °F 100% 29.99 in 8.0 mi Calm Calm - N/A   Overcast
5:56 AM 50.0 °F 50.0 °F 100% 29.98 in 8.0 mi ESE 3.5 mph - N/A   Overcast
6:56 AM 51.1 °F 50.0 °F 96% 29.99 in 8.0 mi ENE 3.5 mph - N/A   Overcast
7:56 AM 52.0 °F 51.1 °F 97% 29.99 in 8.0 mi Calm Calm - N/A   Overcast
8:56 AM 52.0 °F 50.0 °F 93% 30.00 in 5.0 mi WSW 3.5 mph - N/A   Overcast
9:56 AM 53.1 °F 51.1 °F 93% 30.01 in 7.0 mi Calm Calm - N/A   Overcast
10:56 AM 53.1 °F 51.1 °F 93% 30.01 in 9.0 mi SW 6.9 mph - N/A   Overcast
11:56 AM 55.0 °F 51.1 °F 86% 30.02 in 10.0 mi WSW 6.9 mph - N/A   Overcast
12:21 PM 55.4 °F 51.8 °F 88% 30.02 in 10.0 mi SW 5.8 mph - N/A   Partly Cloudy
12:56 PM 57.0 °F 52.0 °F 83% 30.03 in 10.0 mi South 9.2 mph - N/A   Partly Cloudy
1:56 PM 57.9 °F 52.0 °F 81% 30.03 in 10.0 mi South 11.5 mph - N/A   Partly Cloudy
2:56 PM 60.1 °F 50.0 °F 69% 30.03 in 10.0 mi Variable 6.9 mph - N/A   Clear
3:56 PM 60.1 °F 51.1 °F 72% 30.02 in 10.0 mi NW 12.7 mph 20.7 mph N/A   Clear
4:56 PM 57.9 °F 50.0 °F 75% 30.01 in 10.0 mi NNW 17.3 mph 25.3 mph N/A   Clear
5:56 PM 57.9 °F 50.0 °F 75% 30.00 in 9.0 mi NNW 16.1 mph 24.2 mph N/A   Clear
6:56 PM 57.0 °F 48.9 °F 74% 29.99 in 8.0 mi NNW 15.0 mph 21.9 mph N/A   Clear
7:56 PM 55.0 °F 50.0 °F 83% 29.99 in 7.0 mi NNW 17.3 mph 27.6 mph N/A   Clear
8:56 PM 53.1 °F 50.0 °F 89% 29.99 in 6.0 mi NNW 11.5 mph 20.7 mph N/A   Clear
9:56 PM 52.0 °F 50.0 °F 93% 29.99 in 7.0 mi Calm Calm - N/A   Clear
10:56 PM 53.1 °F 50.0 °F 89% 30.00 in 10.0 mi SSE 11.5 mph - N/A   Clear
11:56 PM 53.1 °F 50.0 °F 89% 30.01 in 9.0 mi SSE 10.4 mph - N/A   Clear